Date String (YYYY-MM-DD hh:mm:ss) UTC,Instrument flags,absolute air pressure of the measurement (hPa),sample flow rate (lpm),inlet stack bypass flow (lpm),air temperature of the measurement (°C),ambient temperature measured by the external sensor (°C),aerosol sample conditioner tube jacket temperature (°C),OPC LED temperature (°C),internal box temperature (°C),relative humidity of the measurement (%),span deviation,mass concentration of particles derived from Lorenz-Mie calculation of OPC scattering (μg/m³),mass concentration of particles derived from Lorenz-Mie calculation of OPC scattering (μg/m³),mass concentration of particles derived from Lorenz-Mie calculation of OPC scattering (μg/m³)
DateTimeUTC,F1_M11,P_M11,Q1_M11,Q2_M11,T1_M11,T2_M11,T3_M11,T4_M11,T5_M11,U1_M11,ZSPAN_M11,X2_M11,X0_M11,X1_M11
2023-12-19 20:00:00,SystemResetWarning,0825.1,4.99,000.00,025.8,024.9,000.0,034.1,027.2,11.9,0000.0,0000.65,0002.53,0000.44
2023-12-19 20:01:00,SystemResetWarning,0825.0,5.00,000.00,025.8,024.9,000.0,034.1,027.1,11.9,0000.0,0000.60,0002.35,0000.43
2023-12-19 20:02:00,SystemResetWarning,0825.0,5.00,000.00,025.8,024.9,000.0,034.1,027.2,11.9,0000.0,0000.59,0001.98,0000.43
2023-12-19 20:03:00,SystemResetWarning,0825.0,5.00,000.00,025.8,024.9,000.0,034.1,027.2,12.0,0000.0,0000.57,0001.39,0000.43
2023-12-19 20:04:00,SystemResetWarning,0825.0,5.00,000.00,025.9,024.9,000.0,034.1,027.2,12.1,0000.0,0000.58,0001.05,0000.43
2023-12-19 20:05:00,SystemResetWarning,0825.0,5.01,000.00,025.9,024.9,000.0,034.1,027.1,11.9,0000.0,0000.60,0001.11,0000.43
2023-12-19 20:06:00,SystemResetWarning,0825.1,5.01,000.00,025.9,024.9,000.0,034.1,027.2,11.8,0000.0,0000.60,0001.08,0000.42
2023-12-19 20:07:00,SystemResetWarning,0825.1,4.99,000.00,025.9,024.9,000.0,034.1,027.2,12.0,0000.0,0000.61,0001.11,0000.43
2023-12-19 20:08:00,SystemResetWarning,0825.0,4.99,000.00,025.9,024.9,000.0,034.1,027.2,11.9,0000.0,0000.59,0001.11,0000.42
2023-12-19 20:09:00,SystemResetWarning,0825.1,5.01,000.00,025.9,024.9,000.0,034.1,027.2,11.9,0000.0,0000.59,0001.04,0000.42
2023-12-19 20:10:00,SystemResetWarning,0825.0,5.01,000.00,025.9,024.9,000.0,034.1,027.2,12.0,0000.0,0000.59,0001.02,0000.42
2023-12-19 20:11:00,SystemResetWarning,0825.0,5.00,000.00,025.9,024.9,000.0,034.1,027.2,11.8,0000.0,0000.59,0001.05,0000.42
2023-12-19 20:12:00,SystemResetWarning,0825.0,4.99,000.00,025.9,025.0,000.0,034.1,027.2,11.9,0000.0,0000.58,0001.03,0000.42
2023-12-19 20:13:00,SystemResetWarning,0825.0,5.00,000.00,025.9,025.0,000.0,034.1,027.2,12.0,0000.0,0000.57,0001.01,0000.41
2023-12-19 20:14:00,SystemResetWarning,0825.0,5.00,000.00,025.9,025.0,000.0,034.1,027.3,11.9,0000.0,0000.58,0001.10,0000.40
2023-12-19 20:15:00,SystemResetWarning,0825.0,5.01,000.00,025.9,025.0,000.0,034.1,027.3,11.9,0000.0,0000.57,0001.06,0000.40
2023-12-19 20:16:00,SystemResetWarning,0825.0,5.00,000.00,025.9,025.0,000.0,034.2,027.3,11.8,0000.0,0000.55,0000.99,0000.40
2023-12-19 20:17:00,SystemResetWarning,0825.0,5.00,000.00,026.0,025.0,000.0,034.2,027.3,11.7,0000.0,0000.54,0000.96,0000.40
2023-12-19 20:18:00,SystemResetWarning,0825.0,4.99,000.00,026.0,025.0,000.0,034.2,027.3,11.8,0000.0,0000.54,0000.94,0000.40
2023-12-19 20:19:00,SystemResetWarning,0825.0,4.99,000.00,026.0,025.0,000.0,034.2,027.3,11.7,0000.0,0000.53,0000.93,0000.39
2023-12-19 20:20:00,SystemResetWarning,0825.0,5.00,000.00,026.0,025.0,000.0,034.2,027.3,11.8,0000.0,0000.52,0000.87,0000.39
2023-12-19 20:21:00,SystemResetWarning,0825.1,5.00,000.00,026.0,025.0,000.0,034.2,027.3,12.0,0000.0,0000.52,0000.89,0000.38
2023-12-19 20:22:00,SystemResetWarning,0825.0,5.00,000.00,026.0,025.0,000.0,034.2,027.3,12.1,0000.0,0000.52,0000.85,0000.38
2023-12-19 20:23:00,SystemResetWarning,0825.0,5.00,000.00,026.0,025.0,000.0,034.2,027.3,11.9,0000.0,0000.52,0000.84,0000.38
2023-12-19 20:24:00,SystemResetWarning,0825.1,5.01,000.00,026.0,025.0,000.0,034.2,027.3,12.0,0000.0,0000.52,0000.85,0000.38
2023-12-19 20:25:00,SystemResetWarning,0825.0,5.00,000.00,026.0,025.0,000.0,034.2,027.3,12.0,0000.0,0000.51,0000.78,0000.38
2023-12-19 20:26:00,SystemResetWarning,0825.0,5.00,000.00,026.0,025.0,000.0,034.2,027.3,12.0,0000.0,0000.51,0000.78,0000.38
2023-12-19 20:27:00,SystemResetWarning,0825.0,5.00,000.00,026.0,025.0,000.0,034.2,027.3,11.9,0000.0,0000.51,0000.78,0000.38
2023-12-19 20:28:00,SystemResetWarning,0825.0,4.99,000.00,026.0,025.0,000.0,034.2,027.3,11.8,0000.0,0000.49,0000.73,0000.38
2023-12-19 20:29:00,SystemResetWarning,0825.0,5.00,000.00,026.0,025.0,000.0,034.2,027.3,12.0,0000.0,0000.48,0000.71,0000.38
2023-12-19 20:30:00,SystemResetWarning,0825.0,4.99,000.00,026.0,025.0,000.0,034.2,027.3,12.1,0000.0,0000.49,0000.72,0000.39
2023-12-19 20:31:00,SystemResetWarning,0824.9,5.00,000.00,026.0,025.0,000.0,034.2,027.3,12.0,0000.0,0000.48,0000.70,0000.39
2023-12-19 20:32:00,SystemResetWarning,0824.9,5.01,000.00,026.0,025.1,000.0,034.2,027.4,12.0,0000.0,0000.45,0000.64,0000.39
2023-12-19 20:33:00,SystemResetWarning,0825.0,5.00,000.00,026.0,025.1,000.0,034.3,027.4,11.9,0000.0,0000.44,0000.60,0000.38
2023-12-19 20:34:00,SystemResetWarning,0825.0,4.99,000.00,026.0,025.1,000.0,034.3,027.4,11.8,0000.0,0000.45,0000.61,0000.38
2023-12-19 20:35:00,SystemResetWarning,0825.1,5.00,000.00,026.0,025.1,000.0,034.3,027.4,11.9,0000.0,0000.46,0000.64,0000.39
2023-12-19 20:36:00,SystemResetWarning,0825.0,5.01,000.00,026.0,025.1,000.0,034.3,027.3,11.9,0000.0,0000.46,0000.64,0000.39
2023-12-19 20:37:00,SystemResetWarning,0825.1,5.00,000.00,026.0,025.1,000.0,034.3,027.3,11.8,0000.0,0000.45,0000.61,0000.38
2023-12-19 20:38:00,SystemResetWarning,0825.0,4.99,000.00,026.0,025.1,000.0,034.3,027.3,11.8,0000.0,0000.45,0000.62,0000.37
2023-12-19 20:39:00,SystemResetWarning,0825.0,4.99,000.00,026.0,025.0,000.0,034.3,027.3,11.9,0000.0,0000.46,0000.64,0000.37
2023-12-19 20:40:00,SystemResetWarning,0825.0,5.02,000.00,026.0,025.0,000.0,034.3,027.3,11.7,0000.0,0000.49,0000.70,0000.38
2023-12-19 20:41:00,SystemResetWarning,0825.0,5.00,000.00,026.0,025.1,000.0,034.3,027.4,11.7,0000.0,0000.50,0000.71,0000.38
2023-12-19 20:42:00,SystemResetWarning,0825.0,4.99,000.00,026.0,025.1,000.0,034.3,027.4,11.8,0000.0,0000.50,0000.71,0000.38
2023-12-19 20:43:00,SystemResetWarning,0825.0,4.99,000.00,026.1,025.0,000.0,034.3,027.3,11.9,0000.0,0000.51,0000.81,0000.39
2023-12-19 20:44:00,SystemResetWarning,0825.1,5.01,000.00,026.1,025.0,000.0,034.3,027.3,11.9,0000.0,0000.53,0000.98,0000.39
2023-12-19 20:45:00,SystemResetWarning,0825.1,5.00,000.00,026.1,025.0,000.0,034.3,027.3,11.8,0000.0,0000.56,0001.08,0000.40
2023-12-19 20:46:00,SystemResetWarning,0825.0,5.00,000.00,026.1,025.0,000.0,034.3,027.3,11.8,0000.0,0000.56,0001.08,0000.41
2023-12-19 20:47:00,SystemResetWarning,0825.0,4.99,000.00,026.1,025.0,000.0,034.3,027.4,11.8,0000.0,0000.55,0001.05,0000.40
2023-12-19 20:48:00,SystemResetWarning,0825.0,4.99,000.00,026.1,025.1,000.0,034.3,027.4,11.7,0000.0,0000.60,0001.17,0000.41
2023-12-19 20:49:00,SystemResetWarning,0825.1,5.00,000.00,026.1,025.0,000.0,034.3,027.3,11.9,0000.0,0000.61,0001.20,0000.42
2023-12-19 20:50:00,SystemResetWarning,0825.0,5.01,000.00,026.1,025.0,000.0,034.3,027.4,11.9,0000.0,0000.61,0001.20,0000.42
2023-12-19 20:51:00,SystemResetWarning,0825.1,5.00,000.00,026.1,025.1,000.0,034.3,027.4,11.8,0000.0,0000.60,0001.21,0000.42
2023-12-19 20:52:00,SystemResetWarning,0825.1,5.00,000.00,026.1,025.1,000.0,034.3,027.4,11.9,0000.0,0000.63,0001.24,0000.42
2023-12-19 20:53:00,SystemResetWarning,0825.1,5.01,000.00,026.1,025.0,000.0,034.3,027.3,11.9,0000.0,0000.65,0001.28,0000.42
2023-12-19 20:54:00,SystemResetWarning,0825.1,5.00,000.00,026.1,025.0,000.0,034.3,027.4,12.0,0000.0,0000.64,0001.17,0000.42
2023-12-19 20:55:00,SystemResetWarning,0825.1,5.00,000.00,026.1,025.0,000.0,034.3,027.4,12.0,0000.0,0000.63,0001.10,0000.42
2023-12-19 20:56:00,SystemResetWarning,0825.1,4.99,000.00,026.1,025.1,000.0,034.3,027.4,11.9,0000.0,0000.60,0001.01,0000.41
2023-12-19 20:57:00,SystemResetWarning,0825.1,5.00,000.00,026.1,025.1,000.0,034.3,027.4,11.9,0000.0,0000.62,0001.05,0000.41
2023-12-19 20:58:00,SystemResetWarning,0825.1,5.00,000.00,026.1,025.1,000.0,034.3,027.4,11.9,0000.0,0000.63,0001.22,0000.41
2023-12-19 20:59:00,SystemResetWarning,0825.1,5.00,000.00,026.1,025.1,000.0,034.3,027.4,12.1,0000.0,0000.59,0001.95,0000.41
